C/2020 R7 ( ATLAS )

Japanese version
Home page
Updated on July 16, 2022

---------------------------------------------------------------------

* Profile

Discovery Date September 15, 2020
Magnitude 19.0 mag
Discoverer Asteroid Terrestrial-Impact Last Alert System (ATLAS) search program

* Pictures

* Orbital Elements

Epoch 2022 Aug. 9.0 TT = JDT 2459800.5
T 2022 Sept. 16.23589 TT                                Rudenko
q   2.9558950            (2000.0)            P               Q
z  -0.0000349      Peri.  347.83818     +0.05931903     -0.41757567
 +/-0.0000011      Node   268.28176     -0.82290965     -0.53461339
e   1.0001033      Incl.  114.89079     -0.56506721     +0.73472381
From 244 observations 2019 Dec. 3-2022 May 28, mean residual 0".4.

* Finding Charts

* Magnitudes Graph

        m1 = 6.0 + 5 log d + 10.0 log r

---------------------------------------------------------------------

The orbital elements are published on M.P.E.C. 2022-L66.
The charts are made with StellaNavigator Ver.10 (AstroArts).
The magnitudes graphs are made with Comet for Windows.

---------------------------------------------------------------------

Copyright(C) Seiichi Yoshida (comet@aerith.net). All rights reserved.